Flag for Canada Weather past 2 weeks in Whitehorse, Yukon Territory, Canada

Now
30 °F

Passing clouds.


Feels Like: 20 °F
Forecast: 26 / 39 °F
Wind: 13 mph from South

Location: Withehorse

Current Time: Mar 30, 2015 at 6:37:56 AM

Latest Report: Mar 30, 2015 at 6:00 AM


Visibility: 15 mi

Pressure: 29.80 "Hg

Humidity: 75%

Dew point: 23 °F

Location of WhitehorseLocation

Historic Weather in Whitehorse — Graph

°F

Whitehorse temperature yesterday

Maximum temperature yesterday: 41 °F (at 3:00 PM)
Minimum temperature yesterday: 28 °F (at 6:00 AM)
Average temperature yesterday: 35 °F

Past Weeks' High & Low Weather Summary

 TemperatureHumidityPressure
High43 °F (Mar 26, 3:00 PM)100% (Mar 18, 1:00 AM)30.23 "Hg (Mar 18, 1:00 AM)
Low-13 °F (Mar 15, 9:00 AM)30% (Mar 24, 6:00 PM)29.59 "Hg (Mar 29, 1:00 AM)
Average30 °F64%29.92 "Hg
* Reported Mar 15 5:00 AM — Mar 30 5:00 AM, Whitehorse, Weather by CustomWeather, © 2015

Note: Actual official high and low records may vary slightly from our data, if they occured in-between our weather recording intervals... More about our weather records

Advertising

Whitehorse weather history for previous 24 hours

 ConditionsComfort  
Time TempWeatherWind HumidityBarometerVisibility
5:00 AM
Mon, Mar 30
30 °FPassing clouds.10 mph75%29.80 "Hg15 mi
4:00 AM32 °FPassing clouds.15 mph69%29.80 "Hg15 mi
3:00 AM34 °FPassing clouds.14 mph70%29.79 "Hg15 mi
2:00 AM34 °FPassing clouds.2 mph70%29.78 "Hg15 mi
1:00 AM36 °FPartly cloudy.12 mph70%29.75 "Hg15 mi
12:00 AM34 °FPartly cloudy.9 mph75%29.74 "Hg15 mi
11:00 PM
Sun, Mar 29
36 °FPartly cloudy.12 mph70%29.73 "Hg15 mi
10:00 PM36 °FPassing clouds.12 mph70%29.71 "Hg40 mi
9:00 PM37 °FPartly sunny.13 mph65%29.70 "Hg40 mi
8:00 PM39 °FPartly sunny.14 mph61%29.69 "Hg40 mi
7:00 PM41 °FMore clouds than sun.16 mph53%29.67 "Hg40 mi
6:00 PM41 °FMostly cloudy.14 mph53%29.67 "Hg40 mi
5:00 PM41 °FCloudy.13 mph53%29.66 "Hg40 mi
4:00 PM41 °FCloudy.14 mph53%29.67 "Hg40 mi
3:00 PM41 °FMostly cloudy.9 mph53%29.66 "Hg40 mi
2:00 PM39 °FCloudy.13 mph56%29.65 "Hg40 mi
1:00 PM39 °FOvercast.9 mph56%29.65 "Hg40 mi
12:00 PM36 °FBroken clouds.14 mph65%29.65 "Hg40 mi
11:00 AM34 °FBroken clouds.13 mph70%29.65 "Hg40 mi
10:00 AM32 °FBroken clouds.14 mph80%29.63 "Hg40 mi
9:00 AM28 °FBroken clouds.17 mph86%29.64 "Hg40 mi
8:00 AM28 °FPartly cloudy.14 mph86%29.62 "Hg40 mi
7:00 AM28 °FPartly cloudy.16 mph93%29.61 "Hg30 mi
6:00 AM28 °FClear.14 mph86%29.60 "Hg15 mi
Weather by CustomWeather, © 2015

See weather overviewHow to use our weather pages